AirNav   Pilot Hours Calculator
 
 737 users online  

17CL Las Trancas Airport
Davenport, California, USA

GOING TO DAVENPORT?


FAA INFORMATION EFFECTIVE 25 FEBRUARY 2021

Location

FAA Identifier: 17CL
Lat/Long: 37-05-16.8120N 122-16-24.8950W
37-05.280200N 122-16.414917W
37.0880033,-122.2735819
(estimated)
Elevation: 125 ft. / 38 m (estimated)
Variation: 16E (1985)
From city: 6 miles NW of DAVENPORT, CA
Time zone: UTC -8 (UTC -7 during Daylight Saving Time)
Zip code: 95017

Airport Operations

Airport use: Private use. Permission required prior to landing
Activation date: 01/1967
Control tower: no
ARTCC: OAKLAND CENTER
FSS: OAKLAND FLIGHT SERVICE STATION
Attendance: UNATNDD
Wind indicator: yes
Segmented circle: no

Nearby radio navigation aids

VOR radial/distance  VOR name  Freq  Var
OSIr162/18.3WOODSIDE VOR/DME113.9017E
SJCr206/23.3SAN JOSE VOR/DME114.1016E
SFOr154/32.2SAN FRANCISCO VOR/DME115.8017E
OAKr167/38.3OAKLAND VOR/DME116.8017E

Airport Services

Airframe service: NONE
Powerplant service: NONE

Runway Information

Runway 14/32

Dimensions: 1300 x 30 ft. / 396 x 9 m
Surface: gravel
RUNWAY 14  RUNWAY 32
Traffic pattern: rightleft

Airport Ownership and Management from official FAA records

Ownership: Privately-owned
Owner: BIG CREEK LUMBER CO
3564 HWY 1
DAVENPORT, CA 95017
Phone (831) 457-5015
Manager: KENNETH MC CRARY
3564 HWY 1
DAVENPORT, CA 95017
Phone (831) 457-5028

Airport Operational Statistics

Aircraft based on the field: 1
Single engine airplanes: 1
    

Additional Remarks

TURBULENCE SW END DURING NW WIND IN EXCESS OF 15 KTS.
P-LINE 200' E OF RWY.
PHONE OR CONTACT OWNER BEFORE LANDING.
FOR CD CTC NORCAL APCH AT 916-361-3748.

Instrument Procedures

There are no published instrument procedures at 17CL.

Some nearby airports with instrument procedures:

KNUQ - Moffett Federal Airfield (22 nm NE)
KSJC - Norman Y Mineta San Jose International Airport (23 nm NE)
KPAO - Palo Alto Airport (24 nm N)
KWVI - Watsonville Municipal Airport (25 nm E)
KSQL - San Carlos Airport (25 nm N)
 
Loc | Ops | Rwys | IFR | FBO | Links
Com | Nav | Svcs | Stats | Notes
Area around 17CL (Las Trancas Airport)
 
Road maps at: MapQuest Bing Google
 
Aerial photo
WARNING: Photo may not be current or correct
Aerial photo of 17CL (Las Trancas Airport)
Photo by Kenneth and Gabrielle Adelman
Photo taken 04-Oct-2013
looking northeast.

Do you have a better or more recent aerial photo of Las Trancas Airport that you would like to share? If so, please send us your photo.

 
Sectional chart

 
Airport distance calculator
Flying to Las Trancas Airport? Find the distance to fly.

From to 17CL

Sunrise and sunset
Times for 07-Mar-2021
 Local
(UTC-8)
 Zulu
(UTC)
Morning civil twilight06:0714:07
Sunrise06:3314:33
Sunset18:0802:08
Evening civil twilight18:3402:34

Current date and time
Zulu (UTC)  07-Mar-2021 13:30:23
Local (UTC-8)  07-Mar-2021 05:30:23
 
METAR
KNUQ 
23nm NE 
071315Z AUTO 00000KT 10SM CLR 05/02 A3015 RMK AO2
KSJC 
24nm NE 
071253Z AUTO 15003KT 10SM CLR 04/01 A3015 RMK AO2 SLP208 T00390006
KPAO 
24nm N 
070447Z 29006KT 10SM FEW025 09/04 A3016 RMK LAST
KWVI 
25nm E 
071253Z AUTO 34003KT 10SM CLR 03/02 A3013 RMK AO2 SLP205 T00330017
KSQL 
26nm N 
071315Z AUTO 20003KT 10SM CLR 05/02 A3015 RMK AO2
KRHV 
26nm NE 
070550Z 31005KT 10SM BKN020 09/06 A3018 RMK LAST
KHAF 
28nm NW 
071315Z AUTO 00000KT 10SM CLR 03/02 A3015 RMK AO2
KSFO 
32nm N 
071256Z 26003KT 10SM CLR 08/03 A3014 RMK AO2 SLP205 T00830033
KE16 
32nm E 
071315Z AUTO 00000KT 10SM CLR 03/03 A3016 RMK AO2
KOAR 
35nm SE 
134.025 831-384-2967
182215Z AUTO 28012KT 10SM CLR 15/07 A3034 RMK AO2
TAF
KSJC 
24nm NE 
071139Z 0712/0812 00000KT P6SM SKC FM071800 32005KT P6SM FEW200 FM072100 31011KT P6SM FEW200 FM080400 30006KT P6SM FEW200 FM080800 VRB03KT P6SM FEW012 BKN200
NOTAMs
Click for the latest NOTAMs
NOTAMs are issued by the DoD/FAA and will open in a separate window not controlled by AirNav.

 

 
 

Would you like to see your business listed on this page?

 If your business provides an interesting product or service to pilots, flight crews, aircraft, or users of the Las Trancas Airport, you should consider listing it here.  To start the listing process, click on the button below
 
Add a business
 

Other Pages about Las Trancas Airport

Update a link
 
Copyright © AirNav, LLC. All rights reserved. Privacy Policy  Contact